EW7328 Weather Reports


time (UTC)temp
F
wind
direction
speed
knots
gust
knots
rain 1hr
in
rain 24hr
in
rain mn
in
humidity
%
barometer
mb
20260507095813 57 241 0.0 0.0 0.00 0.00 0.00 85 1015.5
20260507095809 57 241 0.0 0.0 0.00 0.00 0.00 85 1015.4
20260507094806 0 241 0.0 0.0 0.00 0.00 0.00 1015.5
20260507094307 59 241 0.0 0.0 0.00 0.00 0.00 83 1015.6
20260507093806 59 241 0.0 0.0 0.00 0.00 0.00 83 1015.6
20260507093307 59 241 0.0 0.0 0.00 0.00 0.00 83 1015.7
20260507092804 59 241 0.0 0.0 0.00 0.00 0.00 83 1015.7
20260507092307 59 241 0.0 0.0 0.00 0.00 0.00 83 1015.9
20260507091802 59 241 0.0 0.0 0.00 0.00 0.00 83 1015.9
20260507091301 59 241 0.0 0.0 0.00 0.00 0.00 83 1015.9
20260507090805 59 241 0.0 0.0 0.00 0.00 0.00 83 1016.0
20260507090800 59 241 0.0 0.0 0.00 0.00 0.00 83 1016.0
20260507085758 59 241 0.0 0.0 0.00 0.00 0.00 83 1016.1
20260507085258 59 241 0.0 0.0 0.00 0.00 0.00 83 1016.1
20260507084757 59 241 0.0 0.0 0.00 0.00 0.00 83 1016.3
20260507084257 59 241 0.0 0.0 0.00 0.00 0.00 83 1016.3
20260507083800 59 241 0.0 0.0 0.00 0.00 0.00 83 1016.5
20260507083756 59 241 0.0 0.0 0.00 0.00 0.00 83 1016.3
20260507083256 59 241 0.0 0.0 0.00 0.00 0.00 83 1016.4
20260507082256 59 241 0.0 0.0 0.00 0.00 0.00 83 1016.4
20260507081756 59 241 0.0 0.0 0.00 0.00 0.00 83 1016.4
20260507081256 59 241 0.0 0.0 0.00 0.00 0.00 83 1016.5
20260507080755 0 241 0.0 0.0 0.00 0.00 0.00 1016.4
20260507080254 0 0.0 0.0 0.00 0.00 0.00 1016.4
20260507075753 0 0.0 0.0 0.00 0.00 0.00 1016.5
20260507075253 0 0.0 0.0 0.00 0.00 0.00 1016.5
20260507074755 0 0.0 0.0 0.00 0.00 0.00 1016.4
20260507074751 0 0.0 0.0 0.00 0.00 0.00 1016.4
20260507073750 0 0.0 0.0 0.00 0.00 0.00 1016.5
20260507073248 0 0.0 0.0 0.00 0.00 0.00 1016.4
20260507072747 62 241 0.0 0.0 0.00 0.00 0.00 81 1016.4
20260507072246 62 241 0.0 0.0 0.00 0.00 0.00 81 1016.5
20260507071745 62 241 0.0 0.0 0.00 0.00 0.00 81 1016.4
20260507071244 62 241 0.0 0.0 0.00 0.00 0.00 81 1016.6
20260507070743 62 241 0.0 0.0 0.00 0.00 0.00 81 1016.6
20260507070243 62 241 0.0 0.0 0.00 0.00 0.00 81 1016.5
20260507065742 62 241 0.0 0.0 0.00 0.00 0.00 81 1016.6
20260507065240 62 241 0.0 0.0 0.00 0.00 0.00 81 1016.7
20260507064740 62 241 0.0 0.0 0.00 0.00 0.00 81 1016.7
20260507064239 62 241 0.0 0.0 0.00 0.00 0.00 81 1016.7
20260507063738 62 241 0.0 0.0 0.00 0.00 0.00 81 1016.7
20260507063242 62 241 0.9 2.6 0.00 0.00 0.00 81 1016.7
20260507063238 62 241 0.0 2.6 0.00 0.00 0.00 81 1016.7
20260507062236 62 241 0.9 1.7 0.00 0.00 0.00 81 1016.7
20260507061736 62 241 0.0 1.7 0.00 0.00 0.00 80 1016.8
20260507061241 62 241 1.7 1.7 0.00 0.00 0.00 80 1016.7
20260507061236 62 241 0.9 1.7 0.00 0.00 0.00 80 1016.8
20260507060851 62 241 0.0 0.0 0.00 0.00 0.00 75 1016.7
20260507060345 62 241 0.0 0.0 0.00 0.00 0.00 75 1016.7
20260507055235 62 241 0.0 0.0 0.00 0.00 0.00 75 1016.8
20260507054733 62 241 0.0 0.0 0.00 0.00 0.00 75 1016.8
20260507054231 62 241 0.0 0.0 0.00 0.00 0.00 75 1016.8
20260507053730 62 241 0.0 0.0 0.00 0.00 0.00 75 1016.8
20260507053230 62 241 0.0 0.9 0.00 0.00 0.00 75 1016.7
20260507052730 62 241 0.0 1.7 0.00 0.00 0.00 74 1016.7
20260507052229 62 241 0.9 1.7 0.00 0.00 0.00 74 1016.7
20260507051730 62 241 0.9 1.7 0.00 0.00 0.00 74 1016.6
20260507051230 62 241 0.9 2.6 0.00 0.00 0.00 75 1016.6
20260507050728 62 241 1.7 2.6 0.00 0.00 0.00 75 1016.6
20260507050227 62 241 0.9 2.6 0.00 0.00 0.00 77 1016.5
20260507045728 62 241 0.0 0.0 0.00 0.00 0.00 78 1016.6
20260507045233 63 241 0.0 0.0 0.00 0.00 0.00 78 1016.5
20260507045229 62 241 0.0 0.0 0.00 0.00 0.00 78 1016.5
20260507044227 63 241 0.0 0.0 0.00 0.00 0.00 78 1016.5
20260507043726 63 241 0.0 0.0 0.00 0.00 0.00 78 1016.6
20260507043228 63 241 0.0 0.0 0.00 0.00 0.00 77 1016.6
20260507042728 63 241 0.0 0.0 0.00 0.00 0.00 77 1016.5
20260507042347 63 241 0.0 0.9 0.00 0.00 0.00 77 1016.5
20260507042232 63 241 0.0 0.0 0.00 0.00 0.00 77 1016.5
20260507042227 63 241 0.0 0.0 0.00 0.00 0.00 77 1016.5
20260507040728 63 241 0.0 0.9 0.00 0.00 0.00 76 1016.5
20260507040226 64 241 0.0 1.7 0.00 0.00 0.00 76 1016.4
20260507035730 64 241 0.9 2.6 0.00 0.00 0.00 75 1016.4
20260507035726 64 241 0.0 2.6 0.00 0.00 0.00 76 1016.4
20260507034727 64 241 0.9 2.6 0.00 0.00 0.00 76 1016.2
20260507034225 64 241 0.0 0.0 0.00 0.00 0.00 75 1016.1
20260507033729 64 241 0.0 3.5 0.00 0.00 0.00 75 1016.1
20260507033225 64 241 0.0 3.5 0.00 0.00 0.00 75 1016.1
20260507032725 64 240 0.9 1.7 0.00 0.00 0.00 74 1016.1
20260507032226 65 240 0.0 0.9 0.00 0.00 0.00 74 1016.1
20260507031726 65 240 0.0 1.7 0.00 0.00 0.00 74 1015.9
20260507031224 65 240 1.7 1.7 0.00 0.00 0.00 74 1015.9
20260507030723 65 240 1.7 1.7 0.00 0.00 0.00 74 1015.8
20260507030222 65 240 0.9 3.5 0.00 0.00 0.00 73 1015.8
20260507025723 65 240 0.9 4.3 0.00 0.00 0.00 73 1015.8
20260507025229 65 283 2.6 3.5 0.00 0.00 0.00 72 1015.6
20260507025224 65 240 2.6 4.3 0.00 0.00 0.00 72 1015.8
20260507024221 65 221 1.7 4.3 0.00 0.00 0.00 71 1015.6
20260507023721 65 281 2.6 4.3 0.00 0.00 0.00 70 1015.6
20260507023222 66 254 0.0 6.1 0.00 0.00 0.00 69 1015.5
20260507022720 66 228 1.7 6.1 0.00 0.00 0.00 68 1015.5
20260507022221 66 223 3.5 5.2 0.00 0.00 0.00 68 1015.4
20260507021722 66 283 3.5 5.2 0.00 0.00 0.00 69 1015.4
20260507021221 67 269 3.5 5.2 0.00 0.00 0.00 69 1015.4
20260507020722 67 241 2.6 5.2 0.00 0.00 0.00 69 1015.4
20260507020221 67 223 2.6 5.2 0.00 0.00 0.00 68 1015.3
20260507015722 67 255 2.6 9.6 0.00 0.00 0.00 68 1015.3
20260507015220 68 217 2.6 9.6 0.00 0.00 0.00 67 1015.3
20260507014721 68 241 1.7 6.1 0.00 0.00 0.00 67 1015.3
20260507014221 68 255 2.6 6.1 0.00 0.00 0.00 67 1015.2
20260507013721 68 245 2.6 5.2 0.00 0.00 0.00 66 1015.3
20260507013219 68 257 2.6 7.8 0.00 0.00 0.00 65 1015.2
20260507012720 69 216 5.2 7.8 0.00 0.00 0.00 65 1015.2
20260507012223 69 244 3.5 6.1 0.00 0.00 0.00 64 1015.0
20260507012217 69 220 3.5 6.1 0.00 0.00 0.00 65 1015.1
20260507011220 69 275 1.7 7.8 0.00 0.00 0.00 64 1015.0
20260507010719 69 265 5.2 7.8 0.00 0.00 0.00 63 1015.0
20260507010217 69 200 2.6 6.1 0.00 0.00 0.00 64 1015.0
20260507005719 70 290 4.3 7.8 0.00 0.00 0.00 64 1015.0
20260507005220 70 293 3.5 7.8 0.00 0.00 0.00 62 1015.0
20260507004719 70 224 1.7 8.7 0.00 0.00 0.00 62 1015.0
20260507004218 70 209 2.6 8.7 0.00 0.00 0.00 62 1015.0
20260507003724 71 258 3.5 8.7 0.00 0.00 0.00 61 1015.0
20260507003718 70 264 5.2 8.7 0.00 0.00 0.00 62 1015.0
20260507002718 71 265 5.2 8.7 0.00 0.00 0.00 61 1015.0
20260507002218 71 237 5.2 7.8 0.00 0.00 0.00 61 1014.9
20260507001716 71 243 4.3 7.8 0.00 0.00 0.00 59 1014.9
20260507001217 72 248 3.5 7.8 0.00 0.00 0.00 59 1014.9
20260507000717 72 254 2.6 6.1 0.00 0.00 0.00 58 1014.9
20260507000222 71 155 2.6 6.1 0.00 0.00 0.00 59 1014.9
20260506235716 71 228 2.6 6.1 0.00 0.00 0.00 59 1014.9
20260506235217 71 261 2.6 9.6 0.00 0.00 0.00 60 1014.9
20260506234715 72 213 4.3 9.6 0.00 0.00 0.00 59 1014.9
20260506234216 72 196 3.5 7.8 0.00 0.00 0.00 59 1014.8
20260506233722 73 289 5.2 8.7 0.00 0.00 0.00 57 1014.9
20260506233716 72 248 3.5 8.7 0.00 0.00 0.00 58 1014.8
20260506232716 73 286 5.2 8.7 0.00 0.00 0.00 56 1014.8
20260506232215 73 248 2.6 7.8 0.00 0.00 0.00 57 1014.9
20260506231714 73 305 2.6 8.7 0.00 0.00 0.00 57 1015.0
20260506231214 73 288 5.2 8.7 0.00 0.00 0.00 55 1014.9
20260506230714 74 159 3.5 8.7 0.00 0.00 0.00 54 1014.9
20260506230219 74 265 1.7 9.6 0.00 0.00 0.00 53 1014.9
20260506225720 74 266 3.5 9.6 0.00 0.00 0.00 51 1015.0
20260506225715 74 283 5.2 9.6 0.00 0.00 0.00 52 1015.1
20260506224714 74 245 5.2 9.6 0.00 0.00 0.00 50 1015.1
20260506224214 74 193 1.7 7.8 0.00 0.00 0.00 49 1015.2
20260506223713 74 220 1.7 12.2 0.00 0.00 0.00 49 1015.2
20260506223213 74 281 5.2 12.2 0.00 0.00 0.00 48 1015.3
20260506222713 75 237 3.5 10.4 0.00 0.00 0.00 48 1015.3
20260506222218 75 223 2.6 6.1 0.00 0.00 0.00 48 1015.3
20260506222212 75 292 4.3 10.4 0.00 0.00 0.00 48 1015.2
20260506221834 74 243 2.6 9.6 0.00 0.00 0.00 49 1015.4
20260506220712 74 296 5.2 9.6 0.00 0.00 0.00 48 1015.5
20260506220212 74 281 3.5 9.6 0.00 0.00 0.00 49 1015.5
20260506215713 74 234 4.3 9.6 0.00 0.00 0.00 49 1015.6
20260506215212 74 310 2.6 8.7 0.00 0.00 0.00 50 1015.6
20260506214828 74 224 3.5 7.8 0.00 0.00 0.00 49 1015.7
20260506214717 74 244 4.3 7.8 0.00 0.00 0.00 50 1015.8
20260506214713 74 251 3.5 8.7 0.00 0.00 0.00 50 1015.7
20260506213213 74 276 2.6 6.1 0.00 0.00 0.00 50 1015.9
20260506212712 74 244 3.5 9.6 0.00 0.00 0.00 51 1015.9
20260506212215 74 299 3.5 7.8 0.00 0.00 0.00 50 1016.0
20260506212211 74 228 2.6 9.6 0.00 0.00 0.00 50 1016.0
20260506211211 74 238 1.7 5.2 0.00 0.00 0.00 52 1016.0
20260506210711 73 240 1.7 8.7 0.00 0.00 0.00 54 1016.1
20260506210216 73 305 3.5 7.8 0.00 0.00 0.00 54 1016.2
20260506210211 73 272 4.3 8.7 0.00 0.00 0.00 53 1016.2
20260506205211 73 290 3.5 9.6 0.00 0.00 0.00 54 1016.2
20260506204710 73 296 5.2 9.6 0.00 0.00 0.00 54 1016.3
20260506204210 72 258 1.7 7.8 0.00 0.00 0.00 56 1016.3
20260506203710 72 261 4.3 7.8 0.00 0.00 0.00 55 1016.3
20260506203210 73 302 3.5 6.1 0.00 0.00 0.00 55 1016.3
20260506202709 73 230 2.6 8.7 0.00 0.00 0.00 56 1016.4
20260506202208 72 223 3.5 11.3 0.00 0.00 0.00 57 1016.4
20260506201709 72 195 2.6 11.3 0.00 0.00 0.00 59 1016.5
20260506201209 72 274 3.5 8.7 0.00 0.00 0.00 57 1016.6
20260506200707 72 223 3.5 8.7 0.00 0.00 0.00 57 1016.7
20260506200209 72 219 5.2 8.7 0.00 0.00 0.00 57 1016.7
20260506195709 72 224 4.3 9.6 0.00 0.00 0.00 57 1016.8
20260506195208 72 276 2.6 9.6 0.00 0.00 0.00 58 1016.8
20260506194708 72 213 2.6 6.1 0.00 0.00 0.00 59 1016.8
20260506194213 73 216 5.2 8.7 0.00 0.00 0.00 57 1016.9
20260506194208 72 228 3.5 8.7 0.00 0.00 0.00 58 1016.9
20260506193208 73 178 1.7 4.3 0.00 0.00 0.00 58 1017.0
20260506192708 73 168 2.6 5.2 0.00 0.00 0.00 58 1016.9
20260506192208 72 179 1.7 5.2 0.00 0.00 0.00 60 1017.0
20260506191709 72 130 1.7 5.2 0.00 0.00 0.00 60 1017.1
20260506191206 71 290 3.5 5.2 0.00 0.00 0.00 60 1017.1
20260506190712 70 235 3.5 6.1 0.00 0.00 0.00 62 1017.2
20260506190707 71 266 1.7 6.1 0.00 0.00 0.00 62 1017.1
20260506185713 71 276 2.6 7.8 0.00 0.00 0.00 64 1017.3
20260506185707 70 238 3.5 7.8 0.00 0.00 0.00 60 1017.2
20260506184708 70 171 3.5 7.8 0.00 0.00 0.00 63 1017.3
20260506184207 69 199 1.7 7.8 0.00 0.00 0.00 63 1017.5
20260506183706 69 223 1.7 6.1 0.00 0.00 0.00 63 1017.6
20260506183205 70 237 3.5 6.1 0.00 0.00 0.00 61 1017.6
20260506182706 70 254 3.5 6.1 0.00 0.00 0.00 61 1017.6
20260506182205 71 220 1.7 4.3 0.00 0.00 0.00 61 1017.6
20260506181711 71 248 2.6 6.1 0.00 0.00 0.00 63 1017.6
20260506181706 71 202 2.6 6.1 0.00 0.00 0.00 62 1017.6
20260506180704 71 271 2.6 4.3 0.00 0.00 0.00 62 1017.7
20260506180206 70 183 0.9 3.5 0.00 0.00 0.00 62 1017.7
20260506175709 71 224 0.9 6.1 0.00 0.00 0.00 61 1017.7
20260506175705 71 165 1.7 6.1 0.00 0.00 0.00 62 1017.7
20260506174705 71 149 1.7 5.2 0.00 0.00 0.00 62 1017.6
20260506174204 71 182 1.7 5.2 0.00 0.00 0.00 62 1017.5
20260506173710 69 250 0.9 1.7 0.00 0.00 0.00 63 1017.7
20260506173704 70 171 0.9 3.5 0.00 0.00 0.00 63 1017.6
20260506173203 69 250 0.9 3.5 0.00 0.00 0.00 61 1017.6
20260506172203 68 250 1.7 3.5 0.00 0.00 0.00 64 1017.7
20260506171704 67 250 0.9 3.5 0.00 0.00 0.00 65 1017.7
20260506171203 67 56 0.9 4.3 0.00 0.00 0.00 67 1017.7
20260506170701 66 55 0.9 4.3 0.00 0.00 0.00 69 1017.6
20260506170201 66 227 0.9 2.6 0.00 0.00 0.00 68 1017.7
20260506165703 66 283 1.7 2.6 0.00 0.00 0.00 67 1017.7
20260506165201 66 283 0.9 2.6 0.00 0.00 0.00 67 1017.7
20260506164701 66 283 1.7 2.6 0.00 0.00 0.00 67 1017.7
20260506164202 65 206 1.7 2.6 0.00 0.00 0.00 68 1017.6
20260506163701 65 72 0.9 2.6 0.00 0.00 0.00 70 1017.7
20260506163202 64 69 0.9 2.6 0.00 0.00 0.00 71 1017.7
20260506162703 64 97 0.9 3.5 0.00 0.00 0.00 72 1017.7
20260506162201 64 140 1.7 3.5 0.00 0.00 0.00 72 1017.7
20260506161701 63 76 1.7 2.6 0.00 0.00 0.00 74 1017.6
20260506161201 63 203 0.9 1.7 0.00 0.00 0.00 73 1017.7
20260506160702 62 203 0.9 1.7 0.00 0.00 0.00 75 1017.8
20260506160159 62 203 0.0 2.6 0.00 0.00 0.00 76 1017.7
20260506155700 62 203 0.0 2.6 0.00 0.00 0.00 76 1017.8
20260506155202 61 203 0.0 2.6 0.00 0.00 0.00 77 1017.9
20260506154700 61 203 0.9 2.6 0.00 0.00 0.00 78 1018.0
20260506154200 61 252 0.0 2.6 0.00 0.00 0.00 77 1017.9
20260506153700 60 252 1.7 2.6 0.00 0.00 0.00 79 1017.9
20260506153158 60 130 0.9 1.7 0.00 0.00 0.00 79 1017.9
20260506152701 60 130 0.0 1.7 0.00 0.00 0.00 79 1017.9
20260506152200 59 130 0.0 1.7 0.00 0.00 0.00 79 1017.9
20260506151659 59 130 0.9 2.6 0.00 0.00 0.00 79 1017.8
20260506151157 59 130 0.9 2.6 0.00 0.00 0.00 79 1017.9
20260506150659 58 130 0.0 1.7 0.00 0.00 0.00 79 1017.9
20260506150158 58 130 0.0 1.7 0.00 0.00 0.00 79 1017.9
20260506145657 58 131 0.9 1.7 0.00 0.00 0.00 79 1017.8
20260506145203 57 131 0.9 1.7 0.00 0.00 0.00 80 1017.8
20260506145158 57 131 0.9 1.7 0.00 0.00 0.00 80 1017.8
20260506144158 56 131 0.9 2.6 0.00 0.00 0.00 80 1017.9
20260506143657 56 131 0.9 2.6 0.00 0.00 0.00 81 1017.8
20260506143202 55 133 0.0 1.7 0.00 0.00 0.00 82 1017.8
20260506143156 56 131 0.0 2.6 0.00 0.00 0.00 81 1017.7
20260506142658 56 131 0.9 2.6 0.00 0.00 0.00 81 1017.8
20260506141657 55 131 1.7 1.7 0.00 0.00 0.00 82 1017.8
20260506141201 55 131 0.0 1.7 0.00 0.00 0.00 83 1017.6
20260506141156 55 131 0.9 1.7 0.00 0.00 0.00 83 1017.7
20260506140810 54 203 0.9 2.6 0.00 0.00 0.00 83 1017.6
20260506140313 54 247 1.7 2.6 0.00 0.00 0.00 84 1017.6
20260506135202 53 247 0.9 2.6 0.00 0.00 0.00 84 1017.7
20260506135156 54 247 0.9 2.6 0.00 0.00 0.00 84 1017.6
20260506134812 53 247 0.0 0.0 0.00 0.00 0.00 84 1017.6
20260506133656 53 247 0.0 0.0 0.00 0.00 0.00 84 1017.6
20260506133154 53 247 0.0 0.0 0.00 0.00 0.00 84 1017.5
20260506132654 53 247 0.0 0.0 0.00 0.00 0.00 84 1017.3
20260506132157 53 247 0.0 0.0 0.00 0.00 0.00 84 1017.2
20260506131655 53 247 0.0 0.0 0.00 0.00 0.00 84 1017.1
20260506131159 53 247 0.0 0.0 0.00 0.00 0.00 84 1017.0
20260506131153 53 247 0.0 0.0 0.00 0.00 0.00 84 1017.1
20260506130154 53 247 0.0 0.0 0.00 0.00 0.00 84 1016.9
20260506125653 53 247 0.0 0.0 0.00 0.00 0.00 84 1016.9
20260506125159 53 247 0.0 0.0 0.00 0.00 0.00 84 1016.9
20260506125154 53 247 0.0 0.0 0.00 0.00 0.00 84 1017.0
20260506124153 53 247 0.0 1.7 0.00 0.00 0.00 84 1016.9
20260506123652 53 247 0.9 1.7 0.00 0.00 0.00 84 1016.9
20260506123153 53 247 0.0 1.7 0.00 0.00 0.00 84 1016.8
20260506122652 53 247 0.0 1.7 0.00 0.00 0.00 84 1016.7
20260506122153 53 247 0.0 0.9 0.00 0.00 0.00 84 1016.7
20260506121650 53 247 0.0 0.9 0.00 0.00 0.00 83 1016.7
20260506121158 54 247 0.0 1.7 0.00 0.00 0.00 84 1016.6
20260506121153 53 247 0.0 0.0 0.00 0.00 0.00 83 1016.7
20260506120152 54 247 0.0 1.7 0.00 0.00 0.00 84 1016.7
20260506115652 54 247 0.9 1.7 0.00 0.00 0.00 84 1016.6
20260506115155 54 247 0.0 0.0 0.00 0.00 0.00 84 1016.6
20260506115151 54 247 0.9 1.7 0.00 0.00 0.00 84 1016.8
20260506114152 54 247 0.0 0.0 0.00 0.00 0.00 84 1016.6
20260506113649 54 247 0.0 0.0 0.00 0.00 0.00 85 1016.6
20260506113150 54 247 0.0 0.0 0.00 0.00 0.00 85 1016.6
20260506112656 54 247 0.0 0.0 0.00 0.00 0.00 85 1016.6
20260506112652 54 247 0.0 0.0 0.00 0.00 0.00 85 1016.6
20260506111649 54 247 0.0 0.0 0.00 0.00 0.00 84 1016.6
20260506111150 54 247 0.0 0.0 0.00 0.00 0.00 84 1016.6
20260506110649 54 247 0.0 0.0 0.00 0.00 0.00 84 1016.6
20260506110150 55 247 0.0 0.0 0.00 0.00 0.00 84 1016.6
20260506105649 55 247 0.0 0.0 0.00 0.00 0.00 84 1016.6
20260506105150 55 247 0.0 0.0 0.00 0.00 0.00 84 1016.6
20260506104650 55 247 0.0 0.0 0.00 0.00 0.00 84 1016.6
20260506104150 55 247 0.0 0.0 0.00 0.00 0.00 84 1016.7
20260506103650 55 247 0.0 0.0 0.00 0.00 0.00 83 1016.6
20260506103148 55 247 0.0 0.0 0.00 0.00 0.00 83 1016.6
20260506102654 55 247 0.0 0.0 0.00 0.00 0.00 83 1016.6
20260506102649 55 247 0.0 0.0 0.00 0.00 0.00 83 1016.7
20260506101648 55 247 0.0 0.0 0.00 0.00 0.00 82 1016.6
20260506101149 55 247 0.0 0.0 0.00 0.00 0.00 82 1016.6
20260506100649 56 247 0.0 0.0 0.00 0.00 0.00 82 1016.6
20260506100147 55 247 0.0 0.0 0.00 0.00 0.00 83 1016.5